TimePST,TemperatureF,Dew PointF,Humidity,Sea Level PressureIn,VisibilityMPH,Wind Direction,Wind SpeedMPH,Gust SpeedMPH,PrecipitationIn,Events,Conditions,WindDirDegrees,DateUTC
12:15 AM,41.0,33.8,76,29.99,10.0,Calm,Calm,-,N/A,,Clear,0,2013-12-21 08:15:00
12:35 AM,37.4,32.0,81,29.98,10.0,East,3.5,-,N/A,,Clear,100,2013-12-21 08:35:00
12:55 AM,35.6,32.0,87,29.98,10.0,Calm,Calm,-,N/A,,Clear,0,2013-12-21 08:55:00
1:15 AM,37.4,32.0,81,29.98,10.0,Calm,Calm,-,N/A,,Clear,0,2013-12-21 09:15:00
1:35 AM,37.4,33.8,87,29.98,10.0,WNW,3.5,-,N/A,,Clear,290,2013-12-21 09:35:00
1:55 AM,41.0,37.4,87,29.98,10.0,SE,3.5,-,N/A,,Clear,130,2013-12-21 09:55:00
2:15 AM,41.0,37.4,87,29.99,10.0,Calm,Calm,-,N/A,,Clear,0,2013-12-21 10:15:00
2:35 AM,42.8,39.2,87,29.99,10.0,Calm,Calm,-,N/A,,Clear,0,2013-12-21 10:35:00
2:55 AM,42.8,39.2,87,29.99,10.0,Calm,Calm,-,N/A,,Clear,0,2013-12-21 10:55:00
3:15 AM,44.6,41.0,87,29.99,10.0,Calm,Calm,-,N/A,,Clear,0,2013-12-21 11:15:00
3:35 AM,42.8,41.0,93,29.99,10.0,East,5.8,-,N/A,,Clear,100,2013-12-21 11:35:00
3:55 AM,44.6,41.0,87,29.99,10.0,Calm,Calm,-,N/A,,Clear,0,2013-12-21 11:55:00
4:15 AM,41.0,41.0,100,30.00,10.0,ESE,8.1,-,N/A,,Clear,120,2013-12-21 12:15:00
4:35 AM,41.0,41.0,100,30.00,10.0,Calm,Calm,-,N/A,,Clear,0,2013-12-21 12:35:00
4:55 AM,41.0,41.0,100,30.00,10.0,South,4.6,-,N/A,,Clear,170,2013-12-21 12:55:00
5:15 AM,41.0,41.0,100,30.00,10.0,Calm,Calm,-,N/A,,Clear,0,2013-12-21 13:15:00
5:35 AM,37.4,37.4,100,30.00,10.0,Calm,Calm,-,N/A,,Clear,0,2013-12-21 13:35:00
5:55 AM,37.4,37.4,100,30.00,10.0,NW,3.5,-,N/A,,Clear,320,2013-12-21 13:55:00
6:15 AM,37.4,37.4,100,30.01,10.0,Calm,Calm,-,N/A,,Clear,0,2013-12-21 14:15:00
6:35 AM,37.4,37.4,100,30.02,10.0,Calm,Calm,-,N/A,,Clear,0,2013-12-21 14:35:00
6:55 AM,35.6,35.6,100,30.02,8.0,Calm,Calm,-,N/A,,Clear,0,2013-12-21 14:55:00
7:15 AM,37.4,37.4,100,30.02,10.0,Calm,Calm,-,N/A,,Clear,0,2013-12-21 15:15:00
7:35 AM,37.4,37.4,100,30.03,9.0,Calm,Calm,-,N/A,,Clear,0,2013-12-21 15:35:00
7:55 AM,37.4,37.4,100,30.04,10.0,SE,3.5,-,N/A,,Clear,130,2013-12-21 15:55:00
8:15 AM,37.4,37.4,100,30.05,9.0,Calm,Calm,-,N/A,,Partly Cloudy,0,2013-12-21 16:15:00
8:35 AM,39.2,39.2,100,30.06,10.0,Calm,Calm,-,N/A,,Mostly Cloudy,0,2013-12-21 16:35:00
8:55 AM,42.8,42.8,100,30.06,10.0,SE,3.5,-,N/A,,Partly Cloudy,140,2013-12-21 16:55:00
9:15 AM,46.4,44.6,93,30.06,10.0,Calm,Calm,-,N/A,,Clear,0,2013-12-21 17:15:00
9:35 AM,48.2,42.8,82,30.07,10.0,SE,3.5,-,N/A,,Clear,130,2013-12-21 17:35:00
9:55 AM,50.0,42.8,76,30.08,10.0,SE,3.5,-,N/A,,Clear,140,2013-12-21 17:55:00
10:15 AM,51.8,44.6,76,30.07,10.0,SE,3.5,-,N/A,,Clear,140,2013-12-21 18:15:00
10:35 AM,53.6,46.4,77,30.07,10.0,Calm,Calm,-,N/A,,Clear,0,2013-12-21 18:35:00
10:55 AM,55.4,46.4,72,30.07,10.0,Calm,Calm,-,N/A,,Clear,0,2013-12-21 18:55:00
11:15 AM,57.2,46.4,67,30.06,10.0,East,4.6,-,N/A,,Clear,80,2013-12-21 19:15:00
11:35 AM,57.2,46.4,67,30.05,8.0,Calm,Calm,-,N/A,,Clear,0,2013-12-21 19:35:00
11:55 AM,59.0,46.4,63,30.04,10.0,WNW,5.8,-,N/A,,Clear,290,2013-12-21 19:55:00
12:15 PM,60.8,46.4,59,30.03,10.0,NNE,5.8,-,N/A,,Clear,30,2013-12-21 20:15:00
12:35 PM,62.6,46.4,55,30.03,10.0,North,5.8,-,N/A,,Clear,10,2013-12-21 20:35:00
12:55 PM,62.6,44.6,52,30.03,10.0,North,6.9,-,N/A,,Clear,360,2013-12-21 20:55:00
1:15 PM,64.4,46.4,52,30.02,10.0,NNW,6.9,-,N/A,,Clear,330,2013-12-21 21:15:00
1:35 PM,64.4,46.4,52,30.01,10.0,WSW,3.5,-,N/A,,Clear,250,2013-12-21 21:35:00
1:55 PM,64.4,46.4,52,30.01,10.0,Calm,Calm,-,N/A,,Clear,0,2013-12-21 21:55:00
2:15 PM,64.4,46.4,52,30.00,10.0,SSE,3.5,-,N/A,,Clear,150,2013-12-21 22:15:00
2:35 PM,64.4,48.2,56,30.00,10.0,SW,8.1,-,N/A,,Clear,230,2013-12-21 22:35:00
2:55 PM,64.4,46.4,52,29.99,10.0,NW,6.9,-,N/A,,Clear,310,2013-12-21 22:55:00
3:15 PM,64.4,48.2,56,29.99,10.0,WNW,4.6,-,N/A,,Clear,290,2013-12-21 23:15:00
3:35 PM,64.4,48.2,56,29.99,10.0,SW,8.1,-,N/A,,Clear,230,2013-12-21 23:35:00
3:55 PM,62.6,48.2,59,29.99,10.0,SSW,6.9,-,N/A,,Clear,210,2013-12-21 23:55:00
4:15 PM,60.8,48.2,63,29.99,10.0,SW,6.9,-,N/A,,Clear,230,2013-12-22 00:15:00
4:35 PM,59.0,48.2,67,29.99,10.0,Calm,Calm,-,N/A,,Clear,0,2013-12-22 00:35:00
4:55 PM,55.4,46.4,72,30.00,10.0,ESE,5.8,-,N/A,,Clear,110,2013-12-22 00:55:00
5:15 PM,55.4,46.4,72,30.01,10.0,Calm,Calm,-,N/A,,Clear,0,2013-12-22 01:15:00
5:35 PM,53.6,46.4,77,30.01,10.0,Calm,Calm,-,N/A,,Clear,0,2013-12-22 01:35:00
5:55 PM,51.8,46.4,82,30.02,10.0,Calm,Calm,-,N/A,,Clear,0,2013-12-22 01:55:00
6:15 PM,46.4,42.8,87,30.03,10.0,ENE,4.6,-,N/A,,Clear,70,2013-12-22 02:15:00
6:35 PM,46.4,44.6,93,30.03,10.0,Calm,Calm,-,N/A,,Clear,0,2013-12-22 02:35:00
6:55 PM,46.4,44.6,93,30.03,10.0,Calm,Calm,-,N/A,,Clear,0,2013-12-22 02:55:00
7:15 PM,46.4,44.6,93,30.04,10.0,SW,3.5,-,N/A,,Clear,230,2013-12-22 03:15:00
7:35 PM,48.2,46.4,93,30.05,10.0,Calm,Calm,-,N/A,,Clear,0,2013-12-22 03:35:00
7:55 PM,44.6,44.6,100,30.05,10.0,Calm,Calm,-,N/A,,Clear,0,2013-12-22 03:55:00
8:15 PM,44.6,44.6,100,30.05,10.0,Calm,Calm,-,N/A,,Clear,0,2013-12-22 04:15:00
8:35 PM,44.6,44.6,100,30.06,10.0,NE,6.9,-,N/A,,Clear,50,2013-12-22 04:35:00
8:55 PM,44.6,44.6,100,30.07,10.0,Calm,Calm,-,N/A,,Clear,0,2013-12-22 04:55:00
9:15 PM,44.6,44.6,100,30.07,10.0,South,3.5,-,N/A,,Clear,190,2013-12-22 05:15:00
9:35 PM,44.6,44.6,100,30.08,10.0,SW,3.5,-,N/A,,Clear,220,2013-12-22 05:35:00
9:55 PM,44.6,44.6,100,30.08,10.0,SSW,4.6,-,N/A,,Clear,200,2013-12-22 05:55:00
10:15 PM,44.6,44.6,100,30.09,10.0,SSW,3.5,-,N/A,,Clear,210,2013-12-22 06:15:00
10:35 PM,42.8,42.8,100,30.09,10.0,Calm,Calm,-,N/A,,Clear,0,2013-12-22 06:35:00
10:55 PM,41.0,41.0,100,30.09,10.0,Calm,Calm,-,N/A,,Clear,0,2013-12-22 06:55:00
11:15 PM,39.2,39.2,100,30.10,4.0,Calm,Calm,-,N/A,,Clear,0,2013-12-22 07:15:00
11:35 PM,41.0,41.0,100,30.10,10.0,Calm,Calm,-,N/A,,Clear,0,2013-12-22 07:35:00
11:55 PM,35.6,35.6,100,30.10,0.8,Calm,Calm,-,N/A,,Mist,0,2013-12-22 07:55:00